contact:dominique.lefevre@mio.osupytheas.fr, maurice.libes@osupytheas.fr
Project:EMSO Ligure-ouest http://www.emso-fr.org/EMSO-France
Sensor Aquadopp, line 13 Serial AQD14315 
DOI : "https://doi.org/10.17882/74513; https://doi.org/10.17882/83244" 
Title:EMSO Ligure Ouest : Data ligne ALBATROSS capteur AQUADOPP - deploiement 2021
Id,Date,Profondeur,Latitude,Longitude,X_East,Y_North,Z_Up,Amplitude_X,Amplitude_Y,Amplitude_Z,Batterie,SoundSpeed,Heading,Pitch,Roll,Pressure,Temperature,Speed,Direction
, , m, degrees North, degrees East, m.s-1, m.s-1,m.s-1, 1, 1, 1, Volt, m.s-1, degree, degree, degree, dbar, degree_C, m.s-1, degree
09,2021-08-13T21:30:00,2000.0,42.79,6.0312,0.048,-0.003,-0.014,71.0,63.0,65.0,13.0,1504.7,78.0,-0.9,0.9,1990.817,13.28,0.048,93.6
09,2021-08-13T22:00:00,2000.0,42.79,6.0312,0.049,-0.023,0.001,67.0,64.0,66.0,13.0,1504.7,81.3,-0.8,0.8,1990.821,13.28,0.054,115.1
09,2021-08-13T22:30:00,2000.0,42.79,6.0312,0.04,0.0,-0.016,67.0,63.0,66.0,13.0,1504.7,80.8,-1.0,0.9,1990.899,13.28,0.04,90.0
09,2021-08-13T23:00:00,2000.0,42.79,6.0312,0.035,-0.026,0.011,64.0,66.0,66.0,13.0,1504.7,81.2,-0.7,1.0,1990.884,13.28,0.043,126.6
09,2021-08-13T23:30:00,2000.0,42.79,6.0312,0.068,-0.016,-0.004,64.0,64.0,67.0,13.0,1504.7,80.9,-0.7,0.9,1990.907,13.28,0.069,103.2
09,2021-08-14T00:00:00,2000.0,42.79,6.0312,0.049,-0.018,-0.002,69.0,64.0,67.0,13.0,1504.6,82.1,-0.7,0.9,1990.822,13.27,0.052,110.2
09,2021-08-14T00:30:00,2000.0,42.79,6.0312,0.051,-0.012,0.014,64.0,64.0,66.0,13.0,1504.6,86.2,-0.8,0.9,1990.794,13.27,0.052,103.2
09,2021-08-14T01:00:00,2000.0,42.79,6.0312,0.034,-0.002,-0.011,67.0,65.0,67.0,13.0,1504.6,83.1,-0.7,0.9,1990.795,13.27,0.034,93.4
09,2021-08-14T01:30:00,2000.0,42.79,6.0312,0.026,-0.004,-0.003,67.0,63.0,65.0,13.0,1504.6,78.8,-0.8,0.9,1990.782,13.27,0.026,98.7
09,2021-08-14T02:00:00,2000.0,42.79,6.0312,0.041,-0.025,-0.015,67.0,62.0,67.0,13.0,1504.6,80.9,-0.9,0.9,1990.752,13.27,0.048,121.4
09,2021-08-14T02:30:00,2000.0,42.79,6.0312,0.003,-0.018,-0.006,67.0,66.0,65.0,13.0,1504.6,83.9,-0.7,1.0,1990.74,13.27,0.018,170.5
09,2021-08-14T03:00:00,2000.0,42.79,6.0312,0.035,-0.016,-0.008,69.0,66.0,66.0,13.0,1504.6,80.8,-0.6,0.9,1990.721,13.27,0.038,114.6
09,2021-08-14T03:30:00,2000.0,42.79,6.0312,0.033,-0.012,-0.021,68.0,63.0,66.0,13.0,1504.6,81.3,-0.6,0.9,1990.711,13.27,0.035,110.0
09,2021-08-14T04:00:00,2000.0,42.79,6.0312,0.005,-0.012,0.013,70.0,63.0,67.0,13.0,1504.6,81.9,-0.9,0.9,1990.682,13.27,0.013,157.4
09,2021-08-14T04:30:00,2000.0,42.79,6.0312,0.035,-0.009,0.012,67.0,64.0,68.0,13.0,1504.6,89.2,-0.8,0.9,1990.677,13.27,0.036,104.4
09,2021-08-14T05:00:00,2000.0,42.79,6.0312,0.045,-0.017,-0.015,67.0,64.0,66.0,13.0,1504.6,91.9,-0.9,0.9,1990.674,13.27,0.048,110.7
09,2021-08-14T05:30:00,2000.0,42.79,6.0312,0.043,-0.018,0.007,66.0,63.0,65.0,13.0,1504.6,91.5,-0.8,0.9,1990.664,13.27,0.046,112.7
09,2021-08-14T06:00:00,2000.0,42.79,6.0312,0.027,-0.005,0.006,65.0,63.0,65.0,13.0,1504.6,81.2,-0.6,1.0,1990.641,13.27,0.027,100.5
09,2021-08-14T06:30:00,2000.0,42.79,6.0312,0.029,0.009,-0.001,66.0,64.0,65.0,13.0,1504.6,83.0,-0.8,1.0,1990.707,13.27,0.03,72.8
09,2021-08-14T07:00:00,2000.0,42.79,6.0312,0.031,0.006,-0.029,65.0,62.0,67.0,12.9,1504.6,79.6,-0.8,1.0,1990.689,13.27,0.031,79.0
09,2021-08-14T07:30:00,2000.0,42.79,6.0312,0.036,-0.004,-0.016,67.0,65.0,65.0,13.0,1504.6,79.3,-0.9,0.9,1990.67,13.27,0.036,96.3
09,2021-08-14T08:00:00,2000.0,42.79,6.0312,0.035,-0.017,0.014,67.0,64.0,67.0,13.0,1504.6,78.2,-0.8,0.9,1990.707,13.27,0.038,115.9
09,2021-08-14T08:30:00,2000.0,42.79,6.0312,0.019,-0.004,-0.004,66.0,61.0,68.0,13.0,1504.6,78.9,-0.9,0.9,1990.735,13.27,0.019,101.9
09,2021-08-14T09:00:00,2000.0,42.79,6.0312,0.025,-0.022,-0.029,66.0,61.0,65.0,13.0,1504.6,81.6,-0.8,0.9,1990.765,13.27,0.033,131.3
09,2021-08-14T09:30:00,2000.0,42.79,6.0312,0.035,-0.001,-0.035,68.0,65.0,67.0,13.0,1504.6,80.6,-0.9,0.8,1990.758,13.27,0.035,91.6
09,2021-08-14T10:00:00,2000.0,42.79,6.0312,0.027,-0.032,-0.026,66.0,62.0,64.0,13.0,1504.6,94.8,-0.7,0.9,1990.789,13.27,0.041,139.8
09,2021-08-14T10:30:00,2000.0,42.79,6.0312,0.032,-0.01,-0.007,68.0,63.0,67.0,13.0,1504.6,79.5,-0.8,0.9,1990.794,13.27,0.033,107.4
09,2021-08-14T11:00:00,2000.0,42.79,6.0312,0.033,-0.003,-0.018,67.0,63.0,64.0,12.9,1504.7,77.9,-0.8,0.9,1990.786,13.28,0.033,95.2
09,2021-08-14T11:30:00,2000.0,42.79,6.0312,0.018,-0.004,0.002,68.0,62.0,64.0,13.0,1504.7,77.4,-0.8,1.0,1990.774,13.28,0.018,102.5
09,2021-08-14T12:00:00,2000.0,42.79,6.0312,0.031,-0.002,-0.012,68.0,62.0,67.0,13.0,1504.7,90.1,-0.8,1.0,1990.803,13.28,0.031,93.7
09,2021-08-14T12:30:00,2000.0,42.79,6.0312,0.017,-0.003,-0.019,67.0,63.0,64.0,12.9,1504.7,101.9,-0.9,0.9,1990.774,13.28,0.017,100.0
09,2021-08-14T13:00:00,2000.0,42.79,6.0312,0.017,-0.007,0.007,66.0,66.0,65.0,13.0,1504.7,102.5,-0.8,0.9,1990.757,13.28,0.018,112.4
09,2021-08-14T13:30:00,2000.0,42.79,6.0312,0.028,0.003,-0.007,67.0,65.0,65.0,12.9,1504.7,93.3,-0.8,1.0,1990.742,13.28,0.028,83.9
09,2021-08-14T14:00:00,2000.0,42.79,6.0312,0.034,-0.015,-0.009,66.0,64.0,66.0,13.0,1504.7,97.3,-0.8,0.9,1990.713,13.28,0.037,113.8
09,2021-08-14T14:30:00,2000.0,42.79,6.0312,0.036,-0.012,-0.011,68.0,63.0,67.0,13.0,1504.6,86.1,-0.8,0.9,1990.772,13.27,0.037,108.4
09,2021-08-14T15:00:00,2000.0,42.79,6.0312,0.025,-0.008,0.007,66.0,64.0,65.0,13.0,1504.6,92.4,-0.8,1.0,1990.685,13.27,0.026,107.7
09,2021-08-14T15:30:00,2000.0,42.79,6.0312,0.043,0.005,0.007,67.0,64.0,67.0,13.0,1504.6,92.3,-0.7,0.9,1990.692,13.27,0.043,83.4
09,2021-08-14T16:00:00,2000.0,42.79,6.0312,0.04,0.006,0.031,67.0,66.0,67.0,13.0,1504.6,94.4,-0.5,0.9,1990.731,13.27,0.04,81.5
09,2021-08-14T16:30:00,2000.0,42.79,6.0312,0.043,-0.016,-0.016,68.0,64.0,66.0,13.0,1504.6,103.4,-0.8,1.0,1990.671,13.27,0.045,110.4
09,2021-08-14T17:00:00,2000.0,42.79,6.0312,0.04,-0.015,0.0,67.0,65.0,67.0,13.0,1504.6,99.6,-0.8,1.0,1990.674,13.27,0.042,110.6
09,2021-08-14T17:30:00,2000.0,42.79,6.0312,0.043,-0.016,-0.003,70.0,68.0,69.0,13.0,1504.6,99.0,-0.6,0.9,1990.656,13.27,0.045,110.4
09,2021-08-14T18:00:00,2000.0,42.79,6.0312,0.039,0.008,0.026,71.0,64.0,66.0,13.0,1504.6,90.4,-0.7,1.0,1990.658,13.27,0.039,78.4
09,2021-08-14T18:30:00,2000.0,42.79,6.0312,0.028,-0.047,-0.006,69.0,65.0,67.0,13.0,1504.6,114.6,-0.7,0.8,1990.654,13.27,0.054,149.2
09,2021-08-14T19:00:00,2000.0,42.79,6.0312,0.055,-0.004,0.025,65.0,65.0,67.0,13.0,1504.6,97.7,-0.9,0.9,1990.618,13.27,0.055,94.2
09,2021-08-14T19:30:00,2000.0,42.79,6.0312,0.01,-0.028,-0.008,68.0,64.0,67.0,13.0,1504.6,104.3,-0.7,1.0,1990.676,13.27,0.029,160.4
09,2021-08-14T20:00:00,2000.0,42.79,6.0312,0.046,-0.004,-0.026,69.0,65.0,71.0,12.9,1504.6,104.5,-0.7,0.9,1990.701,13.27,0.046,95.0
09,2021-08-14T20:30:00,2000.0,42.79,6.0312,0.016,-0.02,0.0,70.0,65.0,69.0,12.9,1504.6,94.6,-0.8,1.0,1990.709,13.27,0.025,141.3
09,2021-08-14T21:00:00,2000.0,42.79,6.0312,0.022,-0.004,-0.01,70.0,65.0,67.0,13.0,1504.6,102.5,-1.0,0.9,1990.781,13.27,0.022,100.3
